Flag for U.S.A. Weather past 2 weeks in Midland, Texas, U.S.A.

Now
85 °F

Scattered clouds.


Feels Like: 82 °F
Forecast: 62 / 86 °F
Wind: 10 mph from South

Location: Midland - Midland Airpark

Current Time: Apr 21, 2015 at 7:25:06 PM

Latest Report: Apr 21, 2015 at 6:55 PM


Visibility: 10 mi

Pressure: 29.83 "Hg

Humidity: 19%

Dew point: 38 °F

Location of MidlandLocation

Historic Weather in Midland — Graph

°F

Midland temperature yesterday

Maximum temperature yesterday: 74 °F (at 6:35 PM)
Minimum temperature yesterday: 46 °F (at 6:35 AM)
Average temperature yesterday: 60 °F

Past Weeks' High & Low Weather Summary

 TemperatureHumidityPressure
High91 °F (Apr 7, 4:15 PM)100% (Apr 7, 6:35 AM)30.26 "Hg (Apr 7, 6:35 AM)
Low46 °F (Apr 20, 6:35 AM)9% (Apr 18, 6:15 PM)29.71 "Hg (Apr 8, 5:55 PM)
Average67 °F55%29.96 "Hg
* Reported Apr 6 5:15 PM — Apr 21 5:55 PM, Midland, Weather by CustomWeather, © 2015

Note: Actual official high and low records may vary slightly from our data, if they occured in-between our weather recording intervals... More about our weather records

Advertising

Midland weather history for previous 24 hours

 ConditionsComfort  
Time TempWeatherWind HumidityBarometerVisibility
5:55 PM
Tue, Apr 21
86 °FScattered clouds.8 mph20%29.83 "Hg10 mi
5:15 PM86 °FSunny.5 mph18%29.84 "Hg10 mi
4:55 PM87 °FSunny.10 mph19%29.84 "Hg10 mi
4:15 PM85 °FSunny.8 mph22%29.85 "Hg10 mi
3:55 PM84 °FSunny.3 mph22%29.87 "Hg10 mi
3:15 PM83 °FSunny.5 mph25%29.89 "Hg10 mi
2:55 PM82 °FSunny.No wind26%29.90 "Hg10 mi
2:35 PM81 °FSunny.No wind28%29.91 "Hg10 mi
2:15 PM80 °FSunny.No wind28%29.91 "Hg10 mi
1:55 PM79 °FSunny.No wind29%29.92 "Hg10 mi
1:35 PM78 °FSunny.3 mph31%29.93 "Hg10 mi
1:15 PM75 °FSunny.5 mph35%29.94 "Hg10 mi
12:55 PM75 °FSunny.No wind35%29.95 "Hg10 mi
12:35 PM75 °FSunny.6 mph35%29.96 "Hg10 mi
12:15 PM74 °FSunny.3 mph39%29.96 "Hg10 mi
11:55 AM72 °FSunny.No wind40%29.97 "Hg10 mi
11:35 AM70 °FSunny.12 mph43%29.95 "Hg7 mi
11:15 AM69 °FSunny.10 mph45%29.96 "Hg10 mi
10:55 AM67 °FSunny.13 mph47%29.96 "Hg10 mi
10:35 AM65 °FSunny.14 mph50%29.96 "Hg10 mi
10:15 AM64 °FSunny.12 mph51%29.96 "Hg10 mi
9:55 AM62 °FSunny.10 mph53%29.97 "Hg10 mi
9:35 AM60 °FSunny.9 mph55%29.97 "Hg10 mi
9:15 AM59 °FSunny.10 mph56%29.96 "Hg10 mi
8:55 AM57 °FSunny.8 mph58%29.96 "Hg10 mi
8:35 AM56 °FSunny.7 mph59%29.96 "Hg10 mi
8:15 AM54 °FSunny.8 mph63%29.95 "Hg10 mi
7:55 AM52 °FClear.9 mph66%29.94 "Hg10 mi
7:35 AM51 °FClear.6 mph68%29.95 "Hg7 mi
7:15 AM51 °FClear.6 mph66%29.94 "Hg10 mi
6:55 AM51 °FClear.3 mph66%29.93 "Hg10 mi
6:35 AM52 °FClear.6 mph64%29.94 "Hg10 mi
6:15 AM52 °FClear.6 mph63%29.94 "Hg10 mi
5:55 AM53 °FClear.5 mph62%29.93 "Hg10 mi
5:35 AM52 °FClear.No wind64%29.94 "Hg10 mi
5:15 AM51 °FClear.5 mph66%29.93 "Hg10 mi
4:55 AM53 °FClear.3 mph61%29.93 "Hg10 mi
4:35 AM54 °FClear.6 mph58%29.94 "Hg10 mi
4:15 AM55 °FClear.No wind56%29.94 "Hg10 mi
3:55 AM54 °FClear.3 mph56%29.95 "Hg10 mi
3:35 AM55 °FClear.10 mph54%29.95 "Hg10 mi
3:15 AM56 °FClear.10 mph52%29.91 "Hg10 mi
2:55 AM56 °FClear.8 mph50%29.91 "Hg10 mi
2:35 AM56 °FClear.7 mph49%29.92 "Hg10 mi
2:15 AM57 °FClear.8 mph46%29.93 "Hg10 mi
1:55 AM58 °FClear.9 mph45%29.93 "Hg10 mi
1:35 AM58 °FClear.9 mph43%29.94 "Hg10 mi
1:15 AM60 °FClear.12 mph41%29.94 "Hg10 mi
12:55 AM60 °FClear.12 mph40%29.94 "Hg10 mi
12:35 AM60 °FClear.14 mph42%29.94 "Hg10 mi
12:15 AM60 °FClear.10 mph45%29.95 "Hg10 mi
11:55 PM
Mon, Apr 20
61 °FClear.9 mph44%29.95 "Hg10 mi
11:35 PM62 °FClear.10 mph43%29.95 "Hg10 mi
11:15 PM63 °FClear.15 mph41%29.95 "Hg10 mi
10:15 PM65 °FClear.12 mph38%29.94 "Hg10 mi
9:55 PM66 °FClear.10 mph37%29.94 "Hg10 mi
9:15 PM67 °FSunny.10 mph35%29.93 "Hg10 mi
8:55 PM69 °FSunny.9 mph33%29.92 "Hg10 mi
8:15 PM70 °FSunny.9 mph31%29.90 "Hg10 mi
7:55 PM72 °FSunny.10 mph29%29.90 "Hg10 mi
7:35 PM72 °FSunny.13 mph28%29.90 "Hg10 mi
7:15 PM73 °FSunny.12 mph27%29.90 "Hg10 mi
Weather by CustomWeather, © 2015

See weather overviewHow to use our weather pages